Location: Radford
(37.1320°N, 80.5770°W)
Time: 01:08:40
(UTC-04:00)

Daily predictions for brighter satellites

Satellite Brightness Start Highest point End
(mag) Time Altitude Azimuth Time Altitude Azimuth Time Altitude Azimuth
Cosmos 2263 Rocket 4.3 00:05:12 10° NNW 00:07:11 22° NW 00:07:11 22° NW
Cosmos 2322 Rocket 4.4 00:14:22 19° NW 00:14:22 19° NW 00:18:03 10° N
ATLAS CENTAUR R/B 4.3 00:42:26 75° NW 00:42:26 75° NW 01:05:19 10° NE
ATLAS 3B R/B 4.0 02:10:14 39° N 02:10:14 39° N 02:15:09 10° NNE
CZ-4C R/B 4.4 02:21:12 21° NE 02:21:12 21° NE 02:23:04 10° NNE
CZ-2D R/B 4.4 02:59:59 10° NE 03:02:29 17° ENE 03:02:29 17° ENE
USA 234 4.3 02:59:06 10° ENE 03:03:20 35° E 03:03:20 35° E
NOSS 3-2 (A) 4.3 03:20:43 47° N 03:20:43 47° N 03:25:24 10° NNE
Cosmos 2369 Rocket 3.4 03:20:24 10° N 03:24:37 39° NNE 03:24:37 39° NNE
NOSS 3-3 (A) 4.5 03:24:51 10° NNW 03:32:24 77° ENE 03:33:13 71° ESE
NOSS 3-3 (C) 4.5 03:24:56 10° NNW 03:32:30 77° ENE 03:33:31 67° ESE
CENTAUR R/B 3.8 03:32:55 29° ESE 03:32:55 29° ESE 03:38:16 10° NE
Resurs 1-4 Rocket 3.4 03:29:47 10° NNE 03:33:46 35° ENE 03:33:46 35° ENE
NOSS 3-2 (C) 4.0 03:37:46 53° N 03:37:46 53° N 03:43:02 10° NNE
Centaur D-1A AC-31 3.6 02:48:24 10° WSW 03:38:21 50° S 03:43:57 10° ESE
Cosmos 1943 Rocket 4.1 03:40:02 10° N 03:44:47 27° ENE 03:49:30 10° ESE
SL-16 R/B 4.5 03:47:17 13° NW 03:47:17 13° NW 03:49:00 10° NNW
Okean O Rocket 4.2 03:45:23 10° ENE 03:47:36 14° E 03:48:35 13° ESE
Cosmos 2315 Rocket 4.3 03:51:10 59° ESE 03:51:29 60° E 03:57:38 10° NNE
Cosmos 839 Rocket 4.1 03:58:13 10° NNW 04:06:08 78° WSW 04:06:15 77° SW
CZ-4C R/B 4.2 04:06:22 17° NW 04:06:38 17° NW 04:10:30 10° N
ATLAS 5 CENTAUR R/B 2.2 04:15:17 59° NNE 04:15:17 59° NNE 04:19:33 10° NNE
Meteor 2-10 4.2 04:20:36 66° NW 04:20:36 66° NW 04:25:28 10° N
Cosmos 1862 Rocket 4.1 04:21:36 56° ENE 04:21:36 56° ENE 04:25:22 10° NNE
SL-16 R/B 2.3 04:23:32 70° SW 04:23:51 72° WSW 04:30:03 10° NNW
Cosmos 1302 Rocket 4.1 04:24:29 10° NNW 04:28:59 64° NW 04:28:59 64° NW
UNKNOWN OBJECT B 3.9 04:34:30 10° N 04:36:50 36° N 04:36:50 36° N
IRS-1D 4.1 04:33:22 10° N 04:37:54 43° WNW 04:37:54 43° WNW
Cosmos 1709 Rocket 4.0 04:34:40 10° NNW 04:40:51 57° W 04:41:39 53° WSW
Cosmos 1869 3.9 04:44:49 46° NNW 04:44:49 46° NNW 04:47:46 10° N
CZ-2D R/B 2.4 04:38:48 10° N 04:43:49 48° WNW 04:43:49 48° WNW
SeaSat 1 3.1 04:39:30 10° SE 04:44:17 54° ENE 04:49:06 10° NNW
ARIANE 5 R/B 3.4 04:41:09 10° N 04:45:27 34° WNW 04:45:27 34° WNW
Cosmos 389 Rocket 3.4 04:49:10 41° N 04:49:10 41° N 04:51:35 10° N
Cosmos 1733 Rocket 3.3 04:43:55 10° NNW 04:47:36 55° NW 04:47:36 55° NW
USA 234 3.7 04:42:03 10° NE 04:48:18 50° NW 04:50:41 35° W
Cosmos 1933 3.5 04:54:18 50° SSE 04:55:15 74° E 04:59:22 10° N
GPS 2-05 Rocket1 4.4 04:59:49 25° SE 04:59:49 25° SE 05:02:03 10° E
CZ-4B R/B 3.2 04:57:13 10° NNE 05:00:52 56° E 05:02:25 31° SSE
COSMOS 2406 3.1 04:58:37 37° SSW 05:01:01 86° WNW 05:06:49 10° NNE
Cosmos 2074 Rocket 3.9 04:57:19 10° N 05:03:34 88° W 05:09:49 10° S
Atlas Centaur 2 3.1 05:04:52 21° S 05:05:31 22° SSE 05:09:18 10° ESE
Cosmos 2327 Rocket 4.4 04:59:30 10° N 05:05:39 87° W 05:11:50 10° S
MOZ.5/SAFIR/RUBIN 5/SL-8 3.6 05:02:53 11° SSE 05:07:23 84° WSW 05:12:03 10° NNW
Cosmos 2184 Rocket 3.9 05:02:24 10° N 05:08:48 83° W 05:15:08 10° S
COSMOS 2487 4.0 05:07:09 17° SSE 05:09:24 35° ESE 05:12:43 10° NE
Cosmos 2369 Rocket 4.0 05:05:07 10° NW 05:06:18 15° WNW 05:06:18 15° WNW
Aureole 3 Rocket 4.2 05:02:09 10° S 05:09:27 71° E 05:14:37 10° NNE
Cosmos 1174 4.4 05:07:43 39° SW 05:09:42 70° WNW 05:14:15 10° NNE
Cosmos 1455 4.1 05:12:01 18° NW 05:12:01 18° NW 05:13:46 10° NNW
CZ-2D R/B 4.1 05:09:10 10° N 05:13:12 37° WNW 05:13:35 37° W
Resurs 1-4 Rocket 3.2 05:10:03 10° NNW 05:14:16 25° WNW 05:14:50 24° WNW
Cosmos 1190 Rocket 4.2 05:10:40 19° S 05:14:24 71° ESE 05:19:34 10° NNE
CZ-4B R/B 3.0 05:10:24 10° NNE 05:15:43 86° WNW 05:19:40 18° SSW
CZ-4B DEB 4.2 05:10:39 10° NNE 05:16:08 88° E 05:20:46 15° SSW
Cosmos 1908 Rocket 3.4 05:13:40 10° NNW 05:18:02 70° W 05:21:54 13° S
CZ-3 R/B 4.3 04:28:52 10° W 05:18:05 48° SW 05:29:20 10° SE
ADEOS Rocket 4.1 05:10:38 10° NNE 05:18:20 61° E 05:25:52 10° S
SL-08 ROCKET BODY 4.3 05:13:25 10° N 05:19:26 72° W 05:25:32 10° S
Thor Agena Rocket 3.7 05:16:04 10° SSE 05:21:10 75° ENE 05:26:22 10° N
CENTAUR R/B 3.0 05:20:07 28° WSW 05:23:03 46° NW 05:29:37 10° NNE
Cosmos 1610 Rocket 4.5 05:17:23 10° N 05:23:46 89° W 05:30:02 10° S
Cosmos 2221 Rocket 3.5 05:20:58 21° SSW 05:23:52 76° W 05:28:17 10° N
Cosmos 1992 Rocket 3.9 05:18:38 10° NNW 05:23:53 82° WSW 05:29:06 10° SSE
Okean O Rocket 1.9 05:19:55 10° N 05:24:13 48° WNW 05:26:02 30° SW
ADEOS II 2.9 05:22:00 10° NNE 05:27:08 52° E 05:32:15 10° S
SL-27 R/B 3.7 05:27:08 26° WNW 05:27:10 26° WNW 05:30:16 10° N
ARGOS Delta rocket 4.4 05:24:20 10° N 05:28:15 32° WNW 05:29:24 28° WSW
Cosmos 1943 Rocket 2.6 05:23:23 10° NW 05:28:37 40° WSW 05:33:48 10° S
PSLV R/B 4.5 05:26:53 10° N 05:30:19 33° WNW 05:31:08 30° W
USA 32 4.0 05:25:48 12° SSW 05:30:33 67° W 05:35:47 10° N
Okean-O 3.1 05:26:54 10° NNE 05:31:18 60° E 05:35:40 10° S
Cosmos 1703 Rocket 3.8 05:30:57 22° SSW 05:33:36 51° W 05:37:59 10° N
Cosmos 1408 2.9 05:30:18 10° NNW 05:33:53 45° W 05:36:27 17° SSW
PSLV R/B 3.8 05:31:59 20° WNW 05:34:09 58° NNE 05:37:31 10° E
Sich 1 Rocket 4.4 05:36:23 10° NNW 05:40:12 30° W 05:42:28 19° SW
Cosmos 2285 Rocket 4.1 05:34:09 10° NNW 05:40:25 58° WSW 05:46:38 10° S
Cosmos 1825 3.0 05:44:35 10° NNW 05:47:54 29° W 05:50:26 14° SW
USA 116 4.4 05:46:56 10° SSE 05:51:40 85° ENE 05:56:54 10° N
Cosmos 2151 Rocket 4.5 05:47:33 10° N 05:51:52 53° E 05:56:09 10° SSE
Cosmos 676 Rocket 4.0 05:47:06 10° SSW 05:52:16 87° WNW 05:57:30 10° NNE
PSLV R/B 3.6 05:50:07 10° N 05:54:28 64° WNW 05:58:48 10° SSW
Meteor 1-31 Rocket 3.6 05:51:08 10° NNE 05:54:51 50° E 05:58:34 10° S
Cosmos 1656 Rocket 3.8 05:52:40 10° NNW 05:57:51 48° WSW 06:03:02 10° S
ATLAS 5 CENTAUR R/B 4.0 05:57:49 10° WNW 06:00:04 13° NW 06:02:22 10° N
NAVSTAR 52 R/B(PAM-D 2.9 06:00:58 19° WNW 06:02:02 61° N 06:03:41 10° E
CZ-4B R/B 4.4 06:02:03 10° NNE 06:06:34 72° ESE 06:10:57 10° S
Meteor 2-13 Rocket 4.4 06:01:02 10° N 06:07:07 82° W 06:13:09 10° S
Okean 1-7 3.8 06:04:04 10° SW 06:07:57 32° WNW 06:11:52 10° NNW
Cosmos 407 Rocket 4.0 06:04:44 10° SW 06:09:39 43° WNW 06:14:40 10° N
Okean 2 Rocket 3.8 06:12:05 10° NNW 06:16:07 32° W 06:20:08 10° SSW
BREEZE M DEB (TANK) 4.1 06:17:02 10° S 06:19:11 24° ESE 06:23:14 10° ENE
Cosmos 1400 Rocket 4.3 06:16:35 10° N 06:20:18 41° ENE 06:23:58 10° SSE
SeaSat 1 3.8 06:18:50 10° SW 06:22:03 17° WSW 06:25:16 10° WNW
